Hourly Weather Golden Gate

Today, 13 May, Thursday

Time Temperature Precipitation Wind Pressure Humidity
00:00 +28°C° 0 mm 3 mps 762 mmHg 73%
01:00 +27°C° 0 mm 3 mps 762 mmHg 72%
02:00 +27°C° 0 mm 3 mps 762 mmHg 73%
03:00 +26°C° 0 mm 3 mps 762 mmHg 74%
04:00 +26°C° 0 mm 3 mps 761 mmHg 75%
05:00 +26°C° 0 mm 3 mps 762 mmHg 73%
06:00 +27°C° 0 mm 2 mps 762 mmHg 70%
07:00 +27°C° 0 mm 2 mps 762 mmHg 68%
08:00 +29°C° 0 mm 2 mps 762 mmHg 61%
09:00 +30°C° 0 mm 3 mps 763 mmHg 54%
10:00 +31°C° 0 mm 3 mps 763 mmHg 47%
11:00 +33°C° 0 mm 4 mps 762 mmHg 44%
12:00 +34°C° 0 mm 4 mps 762 mmHg 41%
13:00 +35°C° 0 mm 4 mps 762 mmHg 38%
14:00 +35°C° 0 mm 5 mps 761 mmHg 39%
15:00 +34°C° 0 mm 5 mps 761 mmHg 41%
16:00 +34°C° 0 mm 5 mps 761 mmHg 42%
17:00 +32°C° 0.1 mm 5 mps 761 mmHg 51%
18:00 +29°C° 0.1 mm 5 mps 761 mmHg 60%
19:00 +27°C° 0.1 mm 5 mps 762 mmHg 69%
20:00 +26°C° 0 mm 5 mps 762 mmHg 69%
21:00 +26°C° 0 mm 5 mps 763 mmHg 69%
22:00 +26°C° 0 mm 5 mps 763 mmHg 70%
23:00 +26°C° 0 mm 5 mps 763 mmHg 72%

Tomorrow, 14 May, Friday

Time Temperature Precipitation Wind Pressure Humidity
00:00 +25°C° 0 mm 5 mps 763 mmHg 75%
01:00 +25°C° 0 mm 4 mps 763 mmHg 77%
02:00 +23°C° 0 mm 4 mps 762 mmHg 79%
03:00 +23°C° 0 mm 4 mps 762 mmHg 81%
04:00 +22°C° 0 mm 4 mps 762 mmHg 83%
05:00 +22°C° 0 mm 4 mps 763 mmHg 81%
06:00 +23°C° 0 mm 5 mps 763 mmHg 79%
07:00 +23°C° 0 mm 5 mps 763 mmHg 76%
08:00 +26°C° 0 mm 5 mps 763 mmHg 68%
09:00 +28°C° 0 mm 5 mps 764 mmHg 60%
10:00 +29°C° 0 mm 5 mps 764 mmHg 52%
11:00 +32°C° 0 mm 4 mps 763 mmHg 47%
12:00 +33°C° 0 mm 4 mps 763 mmHg 43%
13:00 +34°C° 0 mm 3 mps 762 mmHg 39%
14:00 +34°C° 0 mm 4 mps 762 mmHg 38%
15:00 +34°C° 0 mm 4 mps 762 mmHg 37%
16:00 +34°C° 0 mm 5 mps 761 mmHg 36%
17:00 +33°C° 0.1 mm 5 mps 762 mmHg 41%
18:00 +32°C° 0.1 mm 5 mps 762 mmHg 47%
19:00 +29°C° 0.1 mm 5 mps 762 mmHg 52%
20:00 +28°C° 0 mm 5 mps 763 mmHg 56%
21:00 +27°C° 0 mm 6 mps 763 mmHg 60%
22:00 +26°C° 0 mm 6 mps 764 mmHg 64%
23:00 +24°C° 0 mm 6 mps 764 mmHg 67%

Day after tomorrow, 15 May, Saturday

Time Temperature Precipitation Wind Pressure Humidity
00:00 +24°C° 0 mm 6 mps 764 mmHg 69%
01:00 +23°C° 0 mm 5 mps 763 mmHg 72%
02:00 +23°C° 0 mm 5 mps 763 mmHg 74%
03:00 +22°C° 0 mm 4 mps 763 mmHg 76%
04:00 +22°C° 0 mm 4 mps 763 mmHg 78%
05:00 +22°C° 0 mm 4 mps 764 mmHg 77%
06:00 +22°C° 0 mm 4 mps 764 mmHg 75%
07:00 +23°C° 0 mm 5 mps 764 mmHg 73%
08:00 +26°C° 0 mm 5 mps 764 mmHg 63%
09:00 +28°C° 0 mm 5 mps 764 mmHg 53%
10:00 +30°C° 0 mm 5 mps 764 mmHg 43%
11:00 +33°C° 0 mm 5 mps 764 mmHg 39%
12:00 +34°C° 0 mm 5 mps 764 mmHg 35%
13:00 +35°C° 0 mm 5 mps 763 mmHg 31%
14:00 +34°C° 0 mm 5 mps 763 mmHg 33%
15:00 +34°C° 0 mm 6 mps 762 mmHg 35%
16:00 +34°C° 0 mm 7 mps 762 mmHg 37%
17:00 +32°C° 0 mm 8 mps 762 mmHg 47%
18:00 +28°C° 0 mm 8 mps 763 mmHg 56%
19:00 +26°C° 0 mm 9 mps 763 mmHg 65%
20:00 +26°C° 0 mm 8 mps 764 mmHg 67%
21:00 +24°C° 0 mm 8 mps 764 mmHg 69%
22:00 +23°C° 0 mm 7 mps 765 mmHg 72%
23:00 +23°C° 0 mm 7 mps 764 mmHg 71%

16 May, Sunday

Time Temperature Precipitation Wind Pressure Humidity
00:00 +23°C° 0 mm 7 mps 764 mmHg 71%
01:00 +23°C° 0 mm 7 mps 764 mmHg 71%
02:00 +23°C° 0 mm 7 mps 764 mmHg 71%
03:00 +22°C° 0 mm 7 mps 764 mmHg 71%
04:00 +22°C° 0 mm 6 mps 764 mmHg 71%
05:00 +23°C° 0 mm 7 mps 764 mmHg 69%
06:00 +23°C° 0 mm 7 mps 765 mmHg 66%
07:00 +23°C° 0 mm 7 mps 765 mmHg 63%
08:00 +26°C° 0 mm 7 mps 765 mmHg 57%
09:00 +28°C° 0 mm 7 mps 765 mmHg 50%
10:00 +29°C° 0 mm 7 mps 765 mmHg 43%
11:00 +32°C° 0 mm 7 mps 765 mmHg 40%
12:00 +33°C° 0 mm 6 mps 764 mmHg 38%
13:00 +34°C° 0 mm 6 mps 764 mmHg 35%
14:00 +34°C° 0 mm 6 mps 764 mmHg 35%
15:00 +33°C° 0 mm 6 mps 763 mmHg 35%
16:00 +33°C° 0 mm 7 mps 763 mmHg 35%
17:00 +30°C° 0 mm 7 mps 763 mmHg 38%
18:00 +29°C° 0 mm 7 mps 763 mmHg 42%
19:00 +28°C° 0 mm 7 mps 764 mmHg 45%
20:00 +26°C° 0 mm 7 mps 764 mmHg 51%
21:00 +24°C° 0 mm 6 mps 764 mmHg 57%
22:00 +23°C° 0 mm 6 mps 765 mmHg 62%
23:00 +22°C° 0 mm 5 mps 764 mmHg 64%

17 May, Monday

Time Temperature Precipitation Wind Pressure Humidity
00:00 +22°C° 0 mm 5 mps 764 mmHg 66%
01:00 +21°C° 0 mm 4 mps 764 mmHg 69%
02:00 +21°C° 0 mm 4 mps 764 mmHg 69%
03:00 +21°C° 0 mm 4 mps 764 mmHg 69%
04:00 +20°C° 0 mm 4 mps 763 mmHg 69%
05:00 +21°C° 0 mm 4 mps 764 mmHg 66%
06:00 +22°C° 0 mm 4 mps 764 mmHg 63%
07:00 +23°C° 0 mm 4 mps 764 mmHg 60%
08:00 +26°C° 0 mm 5 mps 764 mmHg 55%
09:00 +28°C° 0 mm 5 mps 764 mmHg 50%
10:00 +30°C° 0 mm 5 mps 764 mmHg 45%
11:00 +32°C° 0 mm 5 mps 764 mmHg 41%
12:00 +34°C° 0 mm 4 mps 763 mmHg 36%
13:00 +35°C° 0 mm 4 mps 763 mmHg 31%
14:00 +35°C° 0 mm 4 mps 762 mmHg 33%
15:00 +35°C° 0 mm 5 mps 762 mmHg 34%
16:00 +34°C° 0 mm 5 mps 761 mmHg 36%
17:00 +33°C° 0 mm 5 mps 762 mmHg 42%
18:00 +30°C° 0 mm 5 mps 762 mmHg 47%
19:00 +29°C° 0 mm 5 mps 762 mmHg 53%
20:00 +28°C° 0 mm 5 mps 763 mmHg 55%
21:00 +27°C° 0 mm 5 mps 763 mmHg 58%
22:00 +25°C° 0 mm 5 mps 763 mmHg 61%
23:00 +25°C° 0 mm 4 mps 763 mmHg 64%

18 May, Tuesday

Time Temperature Precipitation Wind Pressure Humidity
00:00 +23°C° 0 mm 4 mps 763 mmHg 68%
01:00 +22°C° 0 mm 4 mps 763 mmHg 71%
02:00 +22°C° 0 mm 4 mps 763 mmHg 73%
03:00 +22°C° 0 mm 4 mps 762 mmHg 74%
04:00 +21°C° 0 mm 4 mps 762 mmHg 76%
05:00 +22°C° 0 mm 4 mps 763 mmHg 73%
06:00 +23°C° 0 mm 4 mps 763 mmHg 71%
07:00 +25°C° 0 mm 4 mps 763 mmHg 68%
08:00 +28°C° 0 mm 4 mps 763 mmHg 61%
09:00 +30°C° 0 mm 5 mps 763 mmHg 54%
10:00 +33°C° 0 mm 5 mps 763 mmHg 48%
11:00 +33°C° 0.1 mm 5 mps 763 mmHg 48%
12:00 +33°C° 0.1 mm 5 mps 763 mmHg 48%
13:00 +33°C° 0.1 mm 5 mps 763 mmHg 48%
14:00 +33°C° 0.1 mm 6 mps 762 mmHg 48%
15:00 +33°C° 0.1 mm 6 mps 762 mmHg 48%
16:00 +33°C° 0.1 mm 6 mps 761 mmHg 48%
17:00 +32°C° 0.1 mm 6 mps 762 mmHg 50%
18:00 +30°C° 0.1 mm 6 mps 762 mmHg 53%
19:00 +30°C° 0.1 mm 6 mps 762 mmHg 56%
20:00 +29°C° 0 mm 6 mps 762 mmHg 60%
21:00 +28°C° 0 mm 6 mps 763 mmHg 65%
22:00 +27°C° 0 mm 6 mps 763 mmHg 70%
23:00 +26°C° 0 mm 6 mps 763 mmHg 72%
Show more